User: anonymous   Login
Location: Unspecified
(0.0000°N, 0.0000°E)
Time: 00:11:00
(UTC+00:00)
Language:

SUCHAI - Orbit

View from above orbital plane
View from above orbital plane
View from above satellite
View from above satellite

Ground track
Ground track

The orbit data is extracted from the following two-line orbital elements,

1 42788U 17036Z   21023.41436159  .00001602  00000-0  67834-4 0  9998
2 42788  97.2739  77.8510 0010297 337.4353  22.6431 15.24545892199386
Epoch (UTC): 23 January 2021 09:56:40
Eccentricity: 0.0010297
inclination: 97.2739°
perigee height: 485 km
apogee height: 499 km
right ascension of ascending node: 77.8510°
argument of perigee: 337.4353°
revolutions per day: 15.24545892
mean anomaly at epoch: 22.6431°
orbit number at epoch: 19938

The dashed part of the orbit path shows where the satellite is in the earth's shadow,  

DLR